This is the latest recevied weather packets stored in our database for station/object PD2BVG. If no packets are shown the sender has not sent any weather packets the latest 10 day(s).
| Time | Temp. | Humidity | Pressure | Rain* | Wind** | Luminosity | Snow |
|---|---|---|---|---|---|---|---|
| 1777480601 | 18.33° C | 36% | 1024.3 hPa | 0 mm | - | 331 W/m² | - |
| 1777480542 | 18.33° C | 36% | 1024.2 hPa | 0 mm | - | 332 W/m² | - |
| 1777480480 | 18.33° C | 36% | 1024.4 hPa | 0 mm | - | 334 W/m² | - |
| 1777480420 | 18.33° C | 36% | 1024.4 hPa | 0 mm | - | 341 W/m² | - |
| 1777480361 | 18.33° C | 36% | 1024.2 hPa | 0 mm | - | 341 W/m² | - |
| 1777480299 | 18.33° C | 36% | 1024.3 hPa | 0 mm | - | 343 W/m² | - |
| 1777480239 | 18.33° C | 35% | 1024.5 hPa | 0 mm | - | 347 W/m² | - |
| 1777480179 | 18.33° C | 35% | 1024.3 hPa | 0 mm | - | 348 W/m² | - |
| 1777480116 | 18.33° C | 35% | 1024.3 hPa | 0 mm | - | 352 W/m² | - |
| 1777480056 | 18.89° C | 35% | 1024.3 hPa | 0 mm | - | 357 W/m² | - |
| 1777479999 | 18.89° C | 35% | 1024.4 hPa | 0 mm | - | 357 W/m² | - |
| 1777479937 | 18.89° C | 36% | 1024.4 hPa | 0 mm | - | 359 W/m² | - |
| 1777479877 | 18.89° C | 36% | 1024.3 hPa | 0 mm | - | 362 W/m² | - |
| 1777479815 | 18.89° C | 35% | 1024.4 hPa | 0 mm | - | 364 W/m² | - |
| 1777479754 | 18.89° C | 36% | 1024.4 hPa | 0 mm | - | 369 W/m² | - |
| 1777479694 | 18.89° C | 35% | 1024.4 hPa | 0 mm | - | 371 W/m² | - |
| 1777479633 | 18.33° C | 35% | 1024.4 hPa | 0 mm | - | 373 W/m² | - |
| 1777479573 | 18.33° C | 35% | 1024.4 hPa | 0 mm | - | 376 W/m² | - |
| 1777479512 | 18.89° C | 35% | 1024.3 hPa | 0 mm | - | 378 W/m² | - |
| 1777479452 | 18.89° C | 35% | 1024.3 hPa | 0 mm | - | 378 W/m² | - |
| 1777479400 | 18.89° C | 34% | 1024.3 hPa | 0 mm | - | 385 W/m² | - |
| 1777479330 | 18.89° C | 35% | 1024.3 hPa | 0 mm | - | 387 W/m² | - |
| 1777479270 | 18.89° C | 35% | 1024.4 hPa | 0 mm | - | 390 W/m² | - |
| 1777479210 | 18.89° C | 35% | 1024.4 hPa | 0 mm | - | 392 W/m² | - |
| 1777479149 | 18.89° C | 35% | 1024.4 hPa | 0 mm | - | 394 W/m² | - |
* Rain latest hour (hover to see other rain measurements)
** Current wind speed in m/s (hover to see current wind gust speed)